GW7091 Weather Reports


time (UTC)temp
F
wind
direction
speed
knots
gust
knots
rain 1hr
in
rain 24hr
in
rain mn
in
humidity
%
barometer
mb
20260906040237 73 291 0.0 0.0 0.00 0.00 0.00 91 1046.1
20260906035732 73 291 0.0 0.0 0.00 0.00 0.00 91 1045.8
20260906035228 73 291 0.0 0.0 0.00 0.00 0.00 91 1045.6
20260906034728 73 291 0.0 0.0 0.00 0.00 0.00 90 1045.6
20260906034223 73 325 0.0 0.0 0.00 0.00 0.00 91 1045.5
20260906033719 73 62 0.0 0.9 0.00 0.00 0.00 91 1045.3
20260906033218 73 63 0.0 0.9 0.00 0.00 0.00 92 1045.4
20260906032715 72 64 0.9 1.7 0.00 0.00 0.00 95 1045.7
20260906032215 71 67 3.5 3.5 0.00 0.00 0.00 96 1045.6
20260906031710 71 275 0.0 0.0 0.00 0.00 0.00 95 1045.2
20260906031206 71 275 0.0 0.0 0.00 0.00 0.00 95 1045.3
20260906030705 72 275 0.0 0.0 0.00 0.00 0.00 95 1045.1
20260906030200 72 275 0.0 0.0 0.00 0.00 0.00 95 1045.1
20260906025700 72 275 0.0 0.0 0.00 0.00 0.00 95 1045.1
20260906025200 72 275 0.0 0.0 0.00 0.00 0.00 95 1045.3
20260906024654 73 275 0.0 0.0 0.00 0.00 0.00 95 1045.3
20260906024153 73 275 0.0 0.0 0.00 0.00 0.00 95 1045.5
20260906023649 73 275 0.0 0.0 0.00 0.00 0.00 95 1045.5
20260906023149 73 275 0.0 0.0 0.00 0.00 0.00 95 1045.3
20260906022644 73 275 0.0 0.0 0.00 0.00 0.00 95 1045.4
20260906022140 73 275 0.0 0.0 0.00 0.00 0.00 95 1045.5
20260906021636 73 275 0.0 0.0 0.00 0.00 0.00 94 1045.5
20260906021134 74 275 0.0 0.0 0.00 0.00 0.00 95 1045.4
20260906020635 74 275 0.0 0.0 0.00 0.00 0.00 95 1045.1
20260906020129 74 275 0.0 0.0 0.00 0.00 0.00 95 1045.1
20260906015624 74 275 0.0 0.0 0.00 0.00 0.00 94 1045.0
20260906015122 74 275 0.0 0.0 0.00 0.00 0.00 94 1045.2
20260906014623 74 275 0.0 0.0 0.00 0.00 0.00 94 1045.3
20260906014119 74 275 0.0 0.0 0.00 0.00 0.00 94 1045.3
20260906013614 74 271 0.0 0.0 0.00 0.00 0.00 94 1045.0
20260906013109 75 271 0.9 0.9 0.00 0.00 0.00 94 1045.0
20260906012605 74 53 0.0 0.9 0.00 0.00 0.00 94 1044.8
20260906012105 75 259 0.0 0.0 0.00 0.00 0.00 93 1044.8
20260906011601 75 257 0.0 0.0 0.00 0.00 0.00 93 1044.8
20260906011101 75 243 0.0 0.0 0.00 0.00 0.00 93 1044.9
20260906010556 76 243 0.0 0.0 0.00 0.00 0.00 92 1044.5
20260906010052 76 243 0.0 0.0 0.00 0.00 0.00 92 1044.5
20260906005551 76 243 0.0 0.0 0.00 0.00 0.00 92 1044.6
20260906005050 77 243 0.0 0.0 0.00 0.00 0.00 92 1044.3
20260906004550 77 243 0.0 0.0 0.00 0.00 0.00 91 1044.3
20260906004045 77 243 0.0 0.0 0.00 0.00 0.00 90 1044.6
20260906003540 78 243 0.0 0.0 0.00 0.00 0.00 90 1044.8
20260906003036 78 243 0.0 0.0 0.00 0.00 0.00 90 1044.7
20260906002531 78 243 0.0 0.0 0.00 0.00 0.00 89 1044.4
20260906002025 79 243 0.0 0.0 0.00 0.00 0.00 89 1044.8
20260906001521 79 243 0.0 0.0 0.00 0.00 0.00 88 1044.7
20260906001015 80 243 0.0 0.0 0.00 0.00 0.00 87 1044.6
20260906000511 80 243 0.0 0.0 0.00 0.00 0.00 86 1044.8
20260906000006 81 243 0.0 0.0 0.00 0.00 0.00 85 1044.8
20260905235505 81 243 0.0 0.0 0.00 0.00 0.00 85 1044.8
20260905235001 82 243 0.0 0.0 0.00 0.00 0.00 83 1045.0
20260905234456 83 243 0.0 0.0 0.00 0.00 0.00 81 1045.0
20260905233956 83 243 0.0 0.0 0.00 0.00 0.00 79 1045.1
20260905233452 84 243 0.0 0.0 0.00 0.00 0.00 76 1045.0
20260905232950 84 243 0.0 0.0 0.00 0.00 0.00 76 1045.0
20260905232447 85 243 0.0 0.0 0.00 0.00 0.00 74 1045.3
20260905231942 85 243 0.0 0.0 0.00 0.00 0.00 73 1045.1
20260905231438 86 243 0.0 0.0 0.00 0.00 0.00 70 1045.1
20260905230934 86 243 0.0 0.0 0.00 0.00 0.00 70 1045.3
20260905230432 87 243 0.0 0.0 0.00 0.00 0.00 69 1045.2
20260905225931 88 243 0.0 0.0 0.00 0.00 0.00 68 1045.1
20260905225426 89 243 0.0 0.0 0.00 0.00 0.00 65 1045.1
20260905224921 89 243 0.0 0.0 0.00 0.00 0.00 61 1044.8
20260905224417 90 243 0.0 0.0 0.00 0.00 0.00 60 1045.1
20260905223916 91 243 0.0 0.0 0.00 0.00 0.00 58 1044.9
20260905223415 94 238 0.9 0.9 0.00 0.00 0.00 53 1045.0
20260905222914 96 78 0.9 1.7 0.00 0.00 0.00 48 1045.0
20260905222414 97 97 0.0 0.0 0.00 0.00 0.00 49 1044.8
20260905221910 97 97 0.0 0.0 0.00 0.00 0.00 51 1045.0
20260905221406 97 97 0.0 0.0 0.00 0.00 0.00 50 1045.0
20260905220902 97 97 0.0 0.0 0.00 0.00 0.00 46 1044.9
20260905220358 96 98 0.0 0.0 0.00 0.00 0.00 49 1045.0
20260905215857 97 97 0.0 0.0 0.00 0.00 0.00 51 1045.0
20260905215353 97 97 0.0 0.9 0.00 0.00 0.00 47 1044.7
20260905214849 96 90 0.0 0.0 0.00 0.00 0.00 48 1044.6
20260905214344 98 73 0.9 1.7 0.00 0.00 0.00 45 1044.8
20260905213839 99 352 0.0 0.0 0.00 0.00 0.00 45 1044.7
20260905213335 97 352 0.0 0.0 0.00 0.00 0.00 48 1044.6
20260905212835 98 281 0.0 0.0 0.00 0.00 0.00 47 1044.8
20260905212330 98 278 0.0 0.9 0.00 0.00 0.00 48 1044.7
20260905211830 98 272 0.0 0.9 0.00 0.00 0.00 46 1044.7
20260905211325 98 262 0.9 0.9 0.00 0.00 0.00 46 1044.7
20260905210822 99 263 0.9 0.9 0.00 0.00 0.00 46 1044.8
20260905210321 98 311 0.0 0.0 0.00 0.00 0.00 47 1045.0
20260905205820 97 74 0.9 0.9 0.00 0.00 0.00 46 1044.7
20260905205315 98 311 0.9 1.7 0.00 0.00 0.00 46 1044.9
20260905204814 98 290 0.9 1.7 0.00 0.00 0.00 44 1044.7
20260905204311 98 270 0.0 0.9 0.00 0.00 0.00 47 1044.7
20260905203809 98 265 0.9 1.7 0.00 0.00 0.00 46 1044.8
20260905203306 99 293 0.9 0.9 0.00 0.00 0.00 45 1044.9
20260905202801 99 254 1.7 1.7 0.00 0.00 0.00 45 1045.0
20260905202255 99 204 0.0 0.9 0.00 0.00 0.00 41 1045.3
20260905201751 99 266 0.9 0.9 0.00 0.00 0.00 40 1045.6
20260905201246 99 250 0.0 0.9 0.00 0.00 0.00 42 1045.1
20260905200741 98 151 0.9 0.9 0.00 0.00 0.00 43 1045.4
20260905200237 98 243 0.9 1.7 0.00 0.00 0.00 45 1045.7
20260905195735 97 231 0.0 0.0 0.00 0.00 0.00 43 1045.5
20260905195230 98 250 0.9 2.6 0.00 0.00 0.00 45 1045.5
20260905194726 98 226 0.0 0.9 0.00 0.00 0.00 44 1045.6
20260905194225 98 302 0.9 0.9 0.00 0.00 0.00 42 1045.8
20260905193725 98 154 0.0 0.9 0.00 0.00 0.00 42 1045.7
20260905193220 97 331 0.0 0.0 0.00 0.00 0.00 49 1045.8
20260905192715 97 255 0.0 0.9 0.00 0.00 0.00 46 1045.8
20260905192212 96 29 0.9 1.7 0.00 0.00 0.00 47 1045.9
20260905191711 96 281 0.9 2.6 0.00 0.00 0.00 48 1046.1
20260905191209 96 223 0.0 0.9 0.00 0.00 0.00 44 1046.0
20260905190708 96 272 1.7 1.7 0.00 0.00 0.00 45 1046.5
20260905190207 96 250 1.7 1.7 0.00 0.00 0.00 44 1046.1
20260905185706 95 201 0.9 1.7 0.00 0.00 0.00 49 1046.3
20260905185201 94 338 0.0 0.9 0.00 0.00 0.00 49 1046.4
20260905184700 94 186 1.7 1.7 0.00 0.00 0.00 47 1046.4
20260905184159 95 219 0.9 1.7 0.00 0.00 0.00 49 1046.4
20260905183654 94 262 0.9 0.9 0.00 0.00 0.00 51 1046.5
20260905183149 95 240 0.0 3.5 0.00 0.00 0.00 47 1046.5
20260905182648 95 222 0.9 0.9 0.00 0.00 0.00 50 1046.8
20260905182148 95 230 1.7 1.7 0.00 0.00 0.00 46 1046.8
20260905181644 95 199 0.0 0.9 0.00 0.00 0.00 51 1047.1
20260905181142 94 161 0.9 0.9 0.00 0.00 0.00 52 1047.0
20260905180637 93 205 0.0 0.0 0.00 0.00 0.00 52 1047.3
20260905180133 92 153 1.7 1.7 0.00 0.00 0.00 51 1047.3
20260905175632 92 182 1.7 1.7 0.00 0.00 0.00 48 1047.4
20260905175127 92 260 0.9 2.6 0.00 0.00 0.00 47 1047.2
20260905174623 92 310 0.9 3.5 0.00 0.00 0.00 47 1047.3
20260905174118 92 161 0.9 1.7 0.00 0.00 0.00 47 1047.1
20260905173615 91 160 0.9 2.6 0.00 0.00 0.00 51 1047.2
20260905173110 92 139 1.7 2.6 0.00 0.00 0.00 50 1047.5
20260905172608 92 213 0.9 3.5 0.00 0.00 0.00 52 1047.4
20260905172103 91 184 2.6 2.6 0.00 0.00 0.00 51 1047.4
20260905171600 91 301 1.7 3.5 0.00 0.00 0.00 51 1047.5
20260905171056 89 146 0.0 0.9 0.00 0.00 0.00 53 1047.7
20260905170552 89 75 2.6 3.5 0.00 0.00 0.00 57 1047.8
20260905170047 89 115 2.6 5.2 0.00 0.00 0.00 54 1047.5
20260905165542 89 164 1.7 1.7 0.00 0.00 0.00 53 1047.9
20260905165037 89 106 5.2 7.0 0.00 0.00 0.00 50 1047.7
20260905164537 88 81 1.7 2.6 0.00 0.00 0.00 55 1047.6
20260905164032 88 10 1.7 2.6 0.00 0.00 0.00 53 1047.5
20260905163528 88 91 0.9 1.7 0.00 0.00 0.00 55 1047.5
20260905163024 87 279 1.7 1.7 0.00 0.00 0.00 60 1047.5
20260905162520 88 239 1.7 5.2 0.00 0.00 0.00 55 1047.5
20260905162015 89 256 2.6 3.5 0.00 0.00 0.00 52 1047.6
20260905161514 89 228 2.6 2.6 0.00 0.00 0.00 54 1047.5
20260905161013 88 184 0.0 0.9 0.00 0.00 0.00 61 1048.0
20260905160511 87 280 0.9 1.7 0.00 0.00 0.00 56 1048.0
20260905160012 86 322 0.0 0.9 0.00 0.00 0.00 61 1048.0
20260905155511 86 257 5.2 6.1 0.00 0.00 0.00 58 1048.3
20260905155010 87 280 1.7 1.7 0.00 0.00 0.00 60 1048.1
20260905154505 86 267 0.9 0.9 0.00 0.00 0.00 62 1048.2
20260905154001 85 92 1.7 2.6 0.00 0.00 0.00 62 1048.1
20260905153457 85 128 2.6 3.5 0.00 0.00 0.00 64 1048.3
20260905152956 85 248 0.9 2.6 0.00 0.00 0.00 65 1048.3
20260905152456 85 110 0.9 2.6 0.00 0.00 0.00 63 1048.3
20260905151957 85 140 0.9 0.9 0.00 0.00 0.00 69 1048.6
20260905151452 84 156 3.5 3.5 0.00 0.00 0.00 65 1048.6
20260905150947 83 144 1.7 1.7 0.00 0.00 0.00 70 1048.5
20260905150442 82 198 1.7 2.6 0.00 0.00 0.00 67 1048.5
20260905145938 82 145 0.0 1.7 0.00 0.00 0.00 71 1048.5
20260905145433 81 99 1.7 3.5 0.00 0.00 0.00 72 1048.6
20260905144932 81 155 0.9 5.2 0.00 0.00 0.00 72 1048.8
20260905144428 81 154 2.6 5.2 0.00 0.00 0.00 70 1048.8
20260905143927 82 102 2.6 5.2 0.00 0.00 0.00 70 1049.0
20260905143426 82 139 3.5 3.5 0.00 0.00 0.00 70 1048.9
20260905142927 81 148 2.6 6.1 0.00 0.00 0.00 71 1048.9
20260905142426 82 90 2.6 5.2 0.00 0.00 0.00 68 1048.9
20260905141922 81 92 4.3 6.1 0.00 0.00 0.00 71 1048.7
20260905141422 80 108 1.7 2.6 0.00 0.00 0.00 74 1048.8
20260905140918 78 153 3.5 7.0 0.00 0.00 0.00 77 1048.6
20260905140413 77 99 1.7 3.5 0.00 0.00 0.00 80 1048.8
20260905135912 76 103 3.5 5.2 0.00 0.00 0.00 78 1048.6
20260905135408 76 92 1.7 3.5 0.00 0.00 0.00 81 1048.9
20260905134903 76 39 2.6 5.2 0.00 0.00 0.00 80 1049.2
20260905134402 75 347 1.7 6.1 0.00 0.00 0.00 83 1049.0
20260905133857 74 118 3.5 3.5 0.00 0.00 0.00 83 1049.1
20260905133352 74 59 2.6 5.2 0.00 0.00 0.00 84 1049.1
20260905132851 74 91 3.5 3.5 0.00 0.00 0.00 84 1049.2
20260905132347 74 70 4.3 13.0 0.00 0.00 0.00 84 1049.3
20260905131846 74 144 2.6 5.2 0.00 0.00 0.00 84 1049.3
20260905131342 74 61 1.7 5.2 0.00 0.00 0.00 83 1049.7
20260905130837 74 18 6.1 11.3 0.00 0.00 0.00 83 1049.4
20260905130336 74 92 6.1 8.7 0.00 0.00 0.00 82 1049.1
20260905125831 74 83 1.7 6.1 0.00 0.00 0.00 84 1049.3
20260905125326 74 92 1.7 2.6 0.00 0.00 0.00 85 1049.2
20260905124822 73 65 2.6 3.5 0.00 0.00 0.00 87 1049.1
20260905124318 73 81 1.7 1.7 0.00 0.00 0.00 87 1048.4
20260905123813 73 84 0.9 2.6 0.00 0.00 0.00 86 1048.4
20260905123310 73 115 0.0 0.9 0.00 0.00 0.00 87 1048.7
20260905122809 73 231 0.9 0.9 0.00 0.00 0.00 88 1048.5
20260905122309 73 145 0.0 1.7 0.00 0.00 0.00 88 1048.5
20260905121804 73 131 0.9 1.7 0.00 0.00 0.00 88 1048.3
20260905121301 73 192 0.0 0.9 0.00 0.00 0.00 90 1048.1
20260905120759 73 43 0.0 0.9 0.00 0.00 0.00 91 1048.6
20260905120259 73 329 0.0 0.0 0.00 0.00 0.00 93 1048.6
20260905115755 73 277 0.0 0.9 0.00 0.00 0.00 93 1048.4
20260905115254 74 277 0.0 0.0 0.00 0.00 0.00 93 1048.4
20260905114754 74 275 0.9 0.9 0.00 0.00 0.00 92 1048.2
20260905114253 74 282 0.0 0.0 0.00 0.00 0.00 92 1048.1
20260905113752 74 66 0.0 0.9 0.00 0.00 0.00 93 1048.0
20260905113248 73 66 0.0 0.0 0.00 0.00 0.00 95 1048.2
20260905112744 73 68 1.7 3.5 0.00 0.00 0.00 98 1048.1
20260905112244 73 22 0.9 1.7 0.00 0.00 0.00 99 1048.4
20260905111739 73 76 1.7 2.6 0.00 0.00 0.00 99 1048.2
20260905111238 72 86 1.7 1.7 0.00 0.00 0.00 99 1048.0
20260905110738 72 358 0.0 0.9 0.00 0.00 0.00 99 1047.8
20260905110232 72 358 0.0 0.0 0.00 0.00 0.00 98 1047.5
20260905105728 72 358 0.0 0.0 0.00 0.00 0.00 98 1047.4
20260905105227 72 358 0.0 0.0 0.00 0.00 0.00 98 1047.5
20260905104721 72 358 0.0 0.0 0.00 0.00 0.00 98 1047.0
20260905104218 71 358 0.0 0.0 0.00 0.00 0.00 98 1047.0
20260905103712 71 358 0.0 0.0 0.00 0.00 0.00 98 1046.8
20260905103208 71 358 0.0 0.0 0.00 0.00 0.00 98 1046.8
20260905102704 71 358 0.0 0.0 0.00 0.00 0.00 98 1046.8
20260905102200 70 358 0.0 0.0 0.00 0.00 0.00 98 1046.7
20260905101659 70 358 0.0 0.0 0.00 0.00 0.00 98 1046.7
20260905101157 71 358 0.0 0.0 0.00 0.00 0.00 98 1046.8
20260905100654 71 358 0.0 0.0 0.00 0.00 0.00 98 1046.8
20260905100148 71 358 0.0 0.0 0.00 0.00 0.00 98 1046.8
20260905095647 71 358 0.0 0.0 0.00 0.00 0.00 98 1046.9
20260905095142 71 358 0.0 0.0 0.00 0.00 0.00 98 1047.0
20260905094638 71 358 0.0 0.0 0.00 0.00 0.00 98 1046.8
20260905094137 71 358 0.0 0.0 0.00 0.00 0.00 98 1046.7
20260905093632 71 358 0.0 0.0 0.00 0.00 0.00 98 1046.8
20260905093128 71 358 0.0 0.0 0.00 0.00 0.00 98 1046.8
20260905092628 71 358 0.0 0.0 0.00 0.00 0.00 98 1046.5
20260905092124 70 358 0.0 0.0 0.00 0.00 0.00 98 1046.4
20260905091624 70 358 0.0 0.0 0.00 0.00 0.00 98 1046.7
20260905091123 71 358 0.0 0.0 0.00 0.00 0.00 98 1046.3
20260905090618 70 358 0.0 0.0 0.00 0.00 0.00 98 1046.8
20260905090114 70 358 0.0 0.0 0.00 0.00 0.00 98 1046.5
20260905085612 70 358 0.0 0.0 0.00 0.00 0.00 98 1046.7
20260905085108 71 358 0.0 0.0 0.00 0.00 0.00 98 1046.8
20260905084608 70 358 0.0 0.0 0.00 0.00 0.00 98 1046.5
20260905084103 70 358 0.0 0.0 0.00 0.00 0.00 98 1046.5
20260905083602 70 358 0.0 0.0 0.00 0.00 0.00 98 1046.3
20260905083059 70 358 0.0 0.0 0.00 0.00 0.00 98 1046.4
20260905082554 71 358 0.0 0.0 0.00 0.00 0.00 98 1046.4
20260905082050 71 358 0.0 0.0 0.00 0.00 0.00 98 1046.4
20260905081549 71 358 0.0 0.0 0.00 0.00 0.00 98 1046.5
20260905081045 70 358 0.0 0.0 0.00 0.00 0.00 98 1046.7
20260905080544 70 358 0.0 0.0 0.00 0.00 0.00 98 1046.7
20260905080040 70 358 0.0 0.0 0.00 0.00 0.00 98 1046.5
20260905075538 70 358 0.0 0.0 0.00 0.00 0.00 98 1046.4
20260905075033 71 358 0.0 0.0 0.00 0.00 0.00 98 1046.5
20260905074532 71 358 0.0 0.0 0.00 0.00 0.00 98 1046.7
20260905074028 71 358 0.0 0.0 0.00 0.00 0.00 98 1046.7
20260905073523 71 358 0.0 0.0 0.00 0.00 0.00 98 1046.8
20260905073020 71 358 0.0 0.0 0.00 0.00 0.00 98 1047.0
20260905072518 71 358 0.0 0.0 0.00 0.00 0.00 98 1047.1
20260905072014 71 358 0.0 0.0 0.00 0.00 0.00 98 1047.0
20260905071511 71 358 0.0 0.0 0.00 0.00 0.00 97 1047.1
20260905071011 71 358 0.0 0.0 0.00 0.00 0.00 97 1046.9
20260905070506 71 358 0.0 0.0 0.00 0.00 0.00 98 1047.1
20260905070001 71 358 0.0 0.0 0.00 0.00 0.00 97 1047.1
20260905065459 71 358 0.0 0.0 0.00 0.00 0.00 97 1047.1
20260905064955 72 358 0.0 0.0 0.00 0.00 0.00 97 1047.3
20260905064449 72 358 0.0 0.0 0.00 0.00 0.00 97 1047.2
20260905063944 72 358 0.0 0.0 0.00 0.00 0.00 97 1047.2
20260905063439 72 358 0.0 0.0 0.00 0.00 0.00 97 1047.3
20260905062936 71 358 0.0 0.0 0.00 0.00 0.00 97 1047.3
20260905062435 71 358 0.0 0.0 0.00 0.00 0.00 97 1047.3
20260905061931 72 358 0.0 0.0 0.00 0.00 0.00 97 1047.6
20260905061430 72 358 0.0 0.0 0.00 0.00 0.00 97 1047.5
20260905060930 72 358 0.0 0.0 0.00 0.00 0.00 97 1047.7
20260905060426 72 358 0.0 0.0 0.00 0.00 0.00 97 1047.8
20260905055925 72 358 0.0 0.0 0.00 0.00 0.00 97 1047.8
20260905055420 72 358 0.0 0.0 0.00 0.00 0.00 97 1047.8
20260905054919 72 358 0.0 0.0 0.00 0.00 0.00 97 1047.8
20260905054416 73 358 0.0 0.0 0.00 0.00 0.00 97 1047.9
20260905053915 73 358 0.0 0.0 0.00 0.00 0.00 97 1048.1
20260905053416 73 358 0.0 0.0 0.00 0.00 0.00 97 1048.0
20260905052911 73 358 0.0 0.0 0.00 0.00 0.00 97 1048.0
20260905052411 73 358 0.0 0.0 0.00 0.00 0.00 97 1048.1
20260905051910 73 358 0.0 0.0 0.00 0.00 0.00 97 1048.3
20260905051406 73 358 0.0 0.0 0.00 0.00 0.00 97 1048.1
20260905050904 73 358 0.0 0.0 0.00 0.00 0.00 97 1048.2
20260905050359 73 358 0.0 0.0 0.00 0.00 0.00 97 1048.2
20260905045854 73 358 0.0 0.0 0.00 0.00 0.00 97 1048.0
20260905045349 73 358 0.0 0.0 0.00 0.00 0.00 97 1048.1
20260905044845 73 358 0.0 0.0 0.00 0.00 0.00 96 1048.1
20260905044340 73 358 0.0 0.0 0.00 0.00 0.00 96 1048.0
20260905043838 73 358 0.9 0.9 0.00 0.00 0.00 96 1048.2
20260905043333 74 358 0.0 0.0 0.00 0.00 0.00 97 1047.9
20260905042829 74 358 0.0 0.0 0.00 0.00 0.00 97 1048.0
20260905042328 74 358 0.0 0.0 0.00 0.00 0.00 97 1047.8
20260905041823 74 358 0.0 0.0 0.00 0.00 0.00 97 1048.0
20260905041320 73 358 0.0 0.0 0.00 0.00 0.00 97 1047.9
20260905040820 73 359 0.0 0.0 0.00 0.00 0.00 97 1048.0
20260905040319 74 359 0.0 0.0 0.00 0.00 0.00 97 1048.1